1498741200.45,44867,17.81,72926.3,6.17,6.03,6.07,0,*70
1498741201.68,44868,17.88,72928.0,6.15,5.93,5.89,0,*72
1498741202.9,44869,17.88,72928.0,6.15,5.77,5.81,0,*71
1498741204.16,44870,17.81,72932.5,6.17,5.81,5.81,0,*72
1498741205.39,44871,17.88,72930.0,6.17,5.71,5.81,0,*7C
1498741206.62,44872,17.88,72924.5,6.17,5.71,5.73,0,*72
1498741207.87,44873,17.81,72932.3,6.17,5.73,5.81,0,*7C
1498741209.05,44874,17.88,72928.8,6.15,5.49,5.49,0,*74
1498741210.23,44875,17.88,72932.8,6.15,5.41,5.45,0,*71
1498741211.44,44876,17.81,72932.5,6.17,5.63,5.71,0,*77
1498741212.62,44877,17.88,72930.0,6.15,5.23,5.33,0,*76
1498741213.86,44878,17.81,72924.8,6.15,5.01,5.01,0,*78
1498741215.05,44879,17.88,72934.3,6.15,5.19,5.19,0,*79
1498741216.23,44880,17.88,72930.0,6.15,5.49,5.49,0,*7F
1498741217.43,44881,17.81,72934.3,6.13,5.59,5.59,0,*78
1498741218.62,44882,17.81,72940.3,6.15,5.67,5.67,0,*7D
1498741219.88,44883,17.81,72952.0,6.17,5.85,5.85,0,*7E
1498741221.07,44884,17.81,72974.8,6.15,5.99,6.03,0,*7B
1498741222.28,44885,17.88,72970.8,6.17,6.03,6.03,0,*78
1498741223.47,44886,17.81,72962.5,6.15,5.67,5.59,0,*74
1498741224.66,44887,17.81,72956.5,6.15,5.59,5.59,0,*78
1498741225.84,44888,17.88,72962.8,6.15,5.59,5.67,0,*7A
1498741227.07,44889,17.81,72962.3,6.15,5.81,5.77,0,*7F
1498741228.3,44890,17.88,72964.5,6.15,5.93,5.93,0,*7E
1498741229.51,44891,17.88,72966.5,6.17,5.95,6.03,0,*71
1498741230.73,44892,17.88,72966.8,6.17,5.95,6.03,0,*72
1498741231.99,44893,17.81,72964.0,6.17,5.93,5.93,0,*7F
1498741233.22,44894,17.88,72970.5,6.15,5.85,5.89,0,*76
1498741234.47,44895,17.81,72968.5,6.17,5.81,5.81,0,*79
1498741235.73,44896,17.88,72968.3,6.17,5.85,5.81,0,*7E
1498741236.98,44897,17.81,72964.0,6.17,5.73,5.73,0,*7B
1498741238.23,44898,17.81,72966.5,6.17,5.81,5.73,0,*79
1498741239.49,44899,17.81,72968.8,6.17,5.81,5.81,0,*75
1498741240.67,44900,17.81,72968.3,6.15,5.67,5.71,0,*71
1498741241.86,44901,17.81,72966.0,6.15,5.71,5.71,0,*77
1498741243.08,44902,17.81,72962.8,6.15,5.81,5.77,0,*7D
1498741244.32,44903,17.81,72966.3,6.17,5.89,5.99,0,*76
1498741245.54,44904,17.81,72972.5,6.17,6.03,6.03,0,*70
1498741246.74,44905,17.81,72966.8,6.17,5.45,5.45,0,*71
1498741247.98,44906,17.88,72968.0,6.17,5.01,5.11,0,*73
1498741249.19,44907,17.81,72964.3,6.15,4.85,4.79,0,*72
1498741250.42,44908,17.81,72964.0,6.15,4.79,4.79,0,*7E
1498741251.65,44909,17.81,72960.5,6.09,4.49,4.59,0,*73
1498741252.91,44910,17.81,72954.3,6.13,4.63,4.63,0,*71
1498741254.1,44911,17.81,72958.5,6.15,5.11,5.07,0,*71
1498741255.31,44912,17.81,72958.3,6.09,5.07,5.15,0,*7B
1498741256.55,44913,17.81,72962.3,6.09,5.19,5.27,0,*74
1498741257.79,44914,17.81,72962.3,6.09,5.19,5.27,0,*73
1498741259.04,44915,17.81,72960.8,6.09,5.51,5.55,0,*7B
1498741260.29,44916,17.81,72958.0,6.09,5.77,5.73,0,*78
1498741261.55,44917,17.81,72956.3,6.09,5.73,5.73,0,*7D
1498741262.79,44918,17.81,72954.0,6.13,5.77,5.81,0,*70
1498741264.05,44919,17.81,72954.8,6.13,5.89,5.89,0,*78
1498741265.31,44920,17.81,72956.5,6.09,5.73,5.77,0,*7D
1498741266.56,44921,17.81,72954.8,6.13,5.81,5.81,0,*73
1498741267.8,44922,17.81,72956.5,6.13,5.77,5.77,0,*70
1498741269.05,44923,17.81,72960.3,6.13,5.81,5.77,0,*78
1498741270.3,44924,17.81,72966.3,6.13,5.81,5.89,0,*7E
1498741271.54,44925,17.81,72966.0,6.13,5.93,5.99,0,*7D
1498741272.77,44926,17.81,72968.3,6.15,5.77,5.81,0,*7B
1498741273.94,44927,17.81,72968.3,6.15,5.45,5.45,0,*73
1498741275.12,44928,17.81,72966.3,6.15,5.33,5.41,0,*79
1498741276.33,44929,17.88,72962.0,6.15,5.07,5.01,0,*7B
1498741277.52,44930,17.81,72958.3,6.15,5.19,5.19,0,*75
1498741278.7,44931,17.81,72952.8,6.15,5.33,5.33,0,*74
1498741279.93,44932,17.81,72956.5,6.13,5.49,5.55,0,*7C
1498741281.12,44933,17.81,72956.0,6.13,5.45,5.49,0,*7C
1498741282.33,44934,17.81,72958.5,6.09,5.41,5.41,0,*7C
1498741283.54,44935,17.81,72954.3,6.13,5.59,5.59,0,*76
1498741284.75,44936,17.88,72956.5,6.13,5.67,5.67,0,*75
1498741285.98,44937,17.81,72950.3,6.13,5.55,5.67,0,*75
1498741287.17,44938,17.81,72946.3,6.13,5.45,5.45,0,*7B
1498741288.38,44939,17.81,72950.8,6.13,5.29,5.23,0,*70
1498741289.64,44940,17.81,72964.5,6.09,4.93,4.93,0,*7F
1498741290.88,44941,17.81,72950.3,6.09,4.81,4.75,0,*75
1498741292.1,44942,17.81,72938.3,6.09,5.15,5.19,0,*71
1498741293.32,44943,17.81,72942.8,6.09,5.27,5.37,0,*7D
1498741294.59,44944,17.81,72944.5,6.09,5.05,4.97,0,*71
1498741295.86,44945,17.81,72932.0,6.09,4.59,4.59,0,*7A
1498741297.06,44946,17.81,72914.5,6.05,4.19,4.11,0,*7D
1498741298.29,44947,17.81,72918.0,6.05,4.07,4.01,0,*72
1498741299.5,44948,17.81,72910.3,6.03,3.81,3.79,0,*7A
1498741300.74,44949,17.81,72910.5,6.01,4.15,4.05,0,*7F
1498741301.94,44950,17.81,72910.5,6.01,4.49,4.37,0,*7F
1498741303.18,44951,17.81,72906.3,5.99,4.59,4.59,0,*75
1498741304.42,44952,17.81,72910.5,5.99,4.59,4.59,0,*76
1498741305.68,44953,17.81,72908.8,5.97,4.59,4.67,0,*74
1498741306.92,44954,17.81,72908.8,5.99,4.75,4.75,0,*70
1498741308.18,44955,17.81,72920.8,5.97,4.71,4.79,0,*77
1498741309.39,44956,17.81,72916.5,5.97,4.81,4.81,0,*7C
1498741310.65,44957,17.81,72918.5,5.97,4.71,4.79,0,*75
1498741311.89,44958,17.81,72918.5,5.99,5.05,5.05,0,*7C
1498741313.13,44959,17.81,72918.5,5.97,5.05,5.11,0,*76
1498741314.35,44960,17.81,72922.0,5.97,5.23,5.23,0,*79
1498741315.57,44961,17.81,72920.3,5.97,5.27,5.29,0,*76
1498741316.82,44962,17.81,72922.8,5.97,5.27,5.27,0,*7B
1498741318.0,44963,17.81,72922.8,5.99,5.29,5.29,0,*74
1498741319.2,44964,17.81,72924.0,5.97,5.29,5.29,0,*7D
1498741320.38,44965,17.81,72926.5,5.99,5.41,5.41,0,*72
1498741321.61,44966,17.81,72932.3,5.97,5.49,5.51,0,*76
1498741322.84,44967,17.81,72934.3,5.99,5.55,5.55,0,*70
1498741324.06,44968,17.81,72928.3,5.99,5.55,5.55,0,*7F
1498741325.29,44969,17.81,72932.8,5.99,5.51,5.55,0,*7A
1498741326.47,44970,17.81,72928.3,5.99,5.41,5.41,0,*76
1498741327.68,44971,17.81,72928.3,6.01,5.45,5.33,0,*74
1498741328.88,44972,17.81,72932.0,6.01,5.33,5.37,0,*72
1498741330.09,44973,17.81,72930.8,6.01,5.29,5.23,0,*7D
1498741331.3,44974,17.81,72932.8,6.01,5.33,5.37,0,*74
1498741332.51,44975,17.81,72926.3,6.01,5.29,5.23,0,*7B
1498741333.75,44976,17.81,72912.5,6.01,5.07,5.01,0,*74
1498741335.02,44977,17.81,72900.0,5.97,5.01,5.01,0,*7F
1498741336.26,44978,17.81,72894.5,5.99,4.63,4.63,0,*7E
1498741337.5,44979,17.81,72906.3,5.99,4.75,4.75,0,*7F
1498741338.71,44980,17.81,72884.8,5.97,5.11,5.11,0,*77
1498741339.92,44981,17.81,72866.8,5.97,5.15,5.11,0,*72
1498741341.18,44982,17.81,72892.8,5.97,5.05,4.93,0,*7B
1498741342.42,44983,17.81,72878.5,5.97,5.05,5.11,0,*71
1498741343.69,44984,17.81,72880.3,5.97,4.79,4.71,0,*7B
1498741344.95,44985,17.81,72922.5,5.97,4.59,4.67,0,*7F
1498741346.21,44986,17.81,72912.8,5.97,4.59,4.59,0,*71
1498741347.4,44987,17.81,72888.8,5.95,4.11,4.07,0,*75
1498741348.62,44988,17.81,72884.8,5.93,3.93,3.93,0,*7B
1498741349.83,44989,17.81,72884.0,5.93,4.07,4.19,0,*75
1498741351.04,44990,17.81,72902.8,5.91,4.31,4.37,0,*76
1498741352.28,44991,17.81,72900.3,5.91,4.63,4.67,0,*75
1498741353.49,44992,17.81,72892.5,5.89,4.53,4.53,0,*7B
1498741354.69,44993,17.81,72894.0,5.89,4.81,4.81,0,*7A
1498741355.96,44994,17.81,72896.5,5.89,4.71,4.71,0,*7D
1498741357.16,44995,17.81,72894.3,5.89,4.81,4.81,0,*7C
1498741358.42,44996,17.81,72890.3,5.89,4.63,4.63,0,*7F
1498741359.61,44997,17.81,72922.0,5.89,4.49,4.49,0,*7E
1498741360.85,44998,17.81,72926.8,5.91,4.97,4.97,0,*78
1498741362.12,44999,17.81,72914.0,5.89,4.59,4.63,0,*79
1498741363.33,45000,17.81,72900.8,5.89,4.27,4.33,0,*7D
1498741364.53,45001,17.81,72892.0,5.85,4.37,4.45,0,*70
1498741365.75,45002,17.81,72892.3,5.83,4.67,4.59,0,*7D
1498741366.94,45003,17.81,72888.3,5.85,4.49,4.57,0,*78
1498741368.18,45004,17.81,72900.0,5.83,4.71,4.79,0,*7E
1498741369.38,45005,17.81,72922.8,5.85,5.11,5.15,0,*75
1498741370.59,45006,17.81,72936.5,5.85,5.27,5.19,0,*7F
1498741371.79,45007,17.81,72944.5,5.85,5.19,5.15,0,*7F
1498741373.04,45008,17.81,72922.8,5.85,5.05,5.05,0,*7C
1498741374.3,45009,17.81,72920.0,5.85,5.01,5.01,0,*7D
1498741375.5,45010,17.81,72928.3,5.85,5.19,5.29,0,*76
1498741376.69,45011,17.81,72906.3,5.89,5.45,5.41,0,*7C
1498741377.93,45012,17.81,72896.3,5.89,5.05,4.85,0,*72
1498741379.19,45013,17.81,72946.8,5.89,5.05,5.05,0,*7A
1498741380.38,45014,17.81,72964.3,5.85,5.15,5.19,0,*7D
1498741381.58,45015,17.81,72938.8,5.85,5.15,5.15,0,*70
1498741382.83,45016,17.81,72930.5,5.85,4.93,5.01,0,*79
1498741384.04,45017,17.81,72922.5,5.89,5.15,5.19,0,*72
1498741385.24,45018,17.81,72928.0,5.89,5.41,5.41,0,*71
1498741386.45,45019,17.81,72942.5,5.89,5.15,5.15,0,*70
1498741387.65,45020,17.81,72946.8,5.89,5.41,5.45,0,*7E
1498741388.88,45021,17.81,72940.8,5.91,5.55,5.55,0,*72
1498741390.09,45022,17.81,72914.3,5.91,5.49,5.51,0,*78
1498741391.32,45023,17.81,72924.8,5.93,5.55,5.49,0,*7F
1498741392.52,45024,17.81,72920.3,5.93,5.45,5.37,0,*70
1498741393.72,45025,17.81,72910.3,5.93,5.45,5.49,0,*78
1498741394.92,45026,17.81,72910.8,5.89,5.29,5.29,0,*7C
1498741396.12,45027,17.81,72940.5,5.91,5.27,5.33,0,*71
1498741397.31,45028,17.81,72952.8,5.91,5.23,5.23,0,*7B
1498741398.51,45029,17.81,72958.8,5.91,5.23,5.23,0,*7A
1498741399.76,45030,17.81,72962.5,5.93,5.27,5.27,0,*70
1498741400.97,45031,17.81,72962.8,5.93,5.37,5.37,0,*71
1498741402.17,45032,17.81,72948.8,5.93,5.49,5.49,0,*72
1498741403.38,45033,17.81,72952.3,5.93,5.37,5.33,0,*77
1498741404.56,45034,17.81,72956.3,5.95,5.45,5.49,0,*7E
1498741405.82,45035,17.81,72952.3,5.93,5.55,5.55,0,*75
1498741407.02,45036,17.81,72934.5,5.93,5.45,5.45,0,*76
1498741408.2,45037,17.81,72942.0,5.95,5.37,5.37,0,*71
1498741409.38,45038,17.81,72938.3,5.95,5.41,5.41,0,*7E
1498741410.59,45039,17.81,72926.0,5.93,5.37,5.45,0,*7C
1498741411.84,45040,17.81,72918.5,5.97,5.27,5.27,0,*73
1498741413.06,45041,17.81,72906.8,5.93,5.19,5.11,0,*7E
1498741414.28,45042,17.81,72922.0,5.93,5.19,5.19,0,*75
1498741415.55,45043,17.81,72916.5,5.93,4.97,5.01,0,*7A
1498741416.74,45044,17.81,72906.5,5.91,5.19,5.19,0,*71
1498741417.94,45045,17.81,72912.0,5.95,5.23,5.23,0,*74
1498741419.16,45046,17.81,72932.0,5.93,5.19,5.23,0,*78
1498741420.39,45047,17.81,72908.3,5.93,5.19,5.23,0,*79
1498741421.62,45048,17.81,72896.8,5.93,5.33,5.27,0,*7A
1498741422.88,45049,17.81,72920.3,5.93,5.27,5.27,0,*7E
1498741424.11,45050,17.81,72904.0,5.93,5.33,5.27,0,*73
1498741425.32,45051,17.81,72912.5,5.95,5.23,5.27,0,*75
1498741426.53,45052,17.81,72916.5,5.95,5.29,5.27,0,*7C
1498741427.75,45053,17.81,72910.8,5.93,5.11,5.19,0,*7D
1498741428.97,45054,17.81,72914.8,5.93,5.19,5.23,0,*7B
1498741430.19,45055,17.81,72926.3,5.93,5.23,5.23,0,*73
1498741431.4,45056,17.81,72918.5,5.95,5.23,5.27,0,*72
1498741432.58,45057,17.81,72924.0,5.95,5.41,5.49,0,*7F
1498741433.79,45058,17.81,72924.0,5.95,5.51,5.49,0,*71
1498741434.97,45059,17.81,72922.0,5.95,5.59,5.59,0,*79
1498741436.21,45060,17.81,72928.0,5.93,5.55,5.59,0,*79
1498741437.39,45061,17.81,72936.8,5.95,5.59,5.63,0,*7B
1498741438.58,45062,17.81,72920.0,5.95,5.49,5.59,0,*70
1498741439.78,45063,17.81,72926.5,5.93,5.45,5.45,0,*76
1498741440.97,45064,17.81,72922.5,5.95,5.59,5.63,0,*7E
1498741442.15,45065,17.81,72914.5,5.95,5.37,5.41,0,*77
1498741443.37,45066,17.81,72922.8,5.95,5.27,5.27,0,*75
1498741444.58,45067,17.81,72916.0,5.95,5.23,5.27,0,*70
1498741445.8,45068,17.81,72918.3,5.97,5.11,5.11,0,*79
1498741447.07,45069,17.81,72918.8,5.93,5.01,5.01,0,*7C
1498741448.29,45070,17.81,72926.0,5.95,5.05,5.11,0,*77
1498741449.48,45071,17.81,72930.8,5.95,5.23,5.15,0,*76
1498741450.73,45072,17.81,72946.3,5.97,5.27,5.27,0,*72
1498741451.91,45073,17.81,72936.3,5.95,5.41,5.41,0,*71
1498741453.09,45074,17.81,72934.5,5.95,5.29,5.29,0,*76
1498741454.27,45075,17.81,72958.3,5.95,5.37,5.41,0,*76
1498741455.5,45076,17.81,72962.8,5.95,5.51,5.51,0,*74
1498741456.73,45077,17.81,72974.3,5.95,5.51,5.51,0,*75
1498741457.91,45078,17.81,72950.5,5.95,5.59,5.63,0,*73
1498741459.1,45079,17.81,72952.8,5.95,5.15,5.23,0,*7E
1498741460.33,45080,17.81,72960.0,5.99,5.27,5.27,0,*71
1498741461.53,45081,17.81,72982.3,5.97,5.49,5.41,0,*76
1498741462.77,45082,17.81,72948.3,5.97,4.67,4.57,0,*7E
1498741464.0,45083,17.81,72968.5,5.95,4.79,4.79,0,*7E
1498741465.24,45084,17.81,72946.5,5.93,3.97,3.93,0,*7B
1498741466.5,45085,17.81,72940.5,5.93,3.71,3.67,0,*79
1498741467.7,45086,17.81,72924.0,5.89,3.55,3.55,0,*76
1498741468.9,45087,17.81,72938.8,5.89,4.23,4.27,0,*73
1498741470.11,45088,17.81,72930.3,5.89,4.27,4.23,0,*7C
1498741471.33,45089,17.81,72932.0,5.85,4.37,4.31,0,*73
1498741472.56,45090,17.81,72916.0,5.85,4.33,4.31,0,*7F
1498741473.8,45091,17.81,72906.0,5.85,3.97,4.01,0,*74
1498741475.0,45092,17.81,72922.8,5.83,4.33,4.31,0,*7B
1498741476.2,45093,17.81,72942.8,5.83,4.31,4.23,0,*7B
1498741477.4,45094,17.81,72920.8,5.81,4.45,4.45,0,*7D
1498741478.57,45095,17.81,72926.3,5.83,3.85,3.85,0,*7E
1498741479.79,45096,17.81,72908.3,5.81,3.85,3.75,0,*70
1498741481.02,45097,17.81,72888.0,5.79,3.75,3.71,0,*7D
1498741482.25,45098,17.81,72888.5,5.79,3.71,3.75,0,*72
1498741483.41,45099,17.81,72904.8,5.75,4.23,4.19,0,*72
1498741484.66,45100,17.81,72912.0,5.77,4.63,4.63,0,*78
1498741485.86,45101,17.81,72930.0,5.77,4.85,4.85,0,*79
1498741487.06,45102,17.81,72928.5,5.77,5.19,5.23,0,*73
1498741488.26,45103,17.81,72926.3,5.77,5.29,5.33,0,*70
1498741489.48,45104,17.81,72942.5,5.77,5.05,5.07,0,*7E
1498741490.66,45105,17.81,72930.0,5.79,5.15,5.19,0,*7F
1498741491.86,45106,17.81,72920.5,5.79,4.85,4.79,0,*73
1498741493.09,45107,17.81,72896.3,5.79,4.97,4.97,0,*71
1498741494.32,45108,17.81,72918.3,5.79,4.75,4.75,0,*7E
1498741495.49,45109,17.81,72900.0,5.79,4.53,4.57,0,*7B
1498741496.67,45110,17.81,72916.8,5.79,4.53,4.57,0,*73
1498741497.87,45111,17.81,72918.5,5.79,4.85,5.01,0,*7B
1498741499.08,45112,17.81,72892.8,5.79,4.89,5.01,0,*74
1498741500.28,45113,17.81,72914.5,5.79,5.07,5.01,0,*72
1498741501.51,45114,17.81,72868.8,5.79,4.79,4.79,0,*73
1498741502.71,45115,17.81,72904.8,5.77,4.37,4.37,0,*7C
1498741503.97,45116,17.81,72898.5,5.77,4.71,4.63,0,*7C
1498741505.19,45117,17.81,72888.0,5.75,4.67,4.67,0,*7C
1498741506.45,45118,17.81,72882.0,5.77,4.75,4.71,0,*75
1498741507.7,45119,17.81,72894.8,5.77,4.97,4.97,0,*70
1498741508.91,45120,17.81,72914.0,5.77,5.19,5.23,0,*73
1498741510.11,45121,17.81,72890.3,5.77,5.23,5.19,0,*72
1498741511.31,45122,17.81,72894.3,5.77,5.19,5.19,0,*78
1498741512.56,45123,17.81,72894.0,5.77,5.05,5.05,0,*79
1498741513.77,45124,17.81,72890.3,5.79,4.89,4.97,0,*7F
1498741514.99,45125,17.81,72896.3,5.79,4.79,4.79,0,*71
1498741516.2,45126,17.81,72906.8,5.79,4.97,5.07,0,*7A
1498741517.42,45127,17.81,72906.0,5.79,4.79,4.79,0,*73
1498741518.62,45128,17.75,72912.3,5.79,4.89,4.97,0,*73
1498741519.82,45129,17.81,72918.5,5.79,4.79,4.85,0,*7E
1498741521.07,45130,17.81,72922.3,5.77,4.63,4.75,0,*7C
1498741522.27,45131,17.81,72930.8,5.77,4.81,4.85,0,*7E
1498741523.5,45132,17.81,72936.5,5.75,4.71,4.71,0,*7B
1498741524.75,45133,17.81,72932.5,5.77,4.63,4.71,0,*7B
1498741526.0,45134,17.81,72924.8,5.77,4.59,4.59,0,*7F
1498741527.17,45135,17.81,72936.0,5.75,4.45,4.49,0,*70
1498741528.34,45136,17.81,72918.0,5.75,4.49,4.37,0,*76
1498741529.51,45137,17.81,72888.3,5.75,4.45,4.45,0,*7E
1498741530.75,45138,17.81,72908.3,5.75,4.71,4.71,0,*71
1498741531.97,45139,17.81,72908.0,5.77,4.53,4.59,0,*78
1498741533.17,45140,17.81,72926.5,5.75,4.57,4.67,0,*7D
1498741534.4,45141,17.81,72886.0,5.75,4.71,4.79,0,*77
1498741535.63,45142,17.81,72874.5,5.75,5.01,5.05,0,*78
1498741536.83,45143,17.81,72904.5,5.77,5.19,5.11,0,*77
1498741538.01,45144,17.81,72898.0,5.75,5.19,5.19,0,*7A
1498741539.27,45145,17.81,72880.8,5.77,4.93,4.97,0,*7D
1498741540.46,45146,17.81,72938.3,5.79,4.75,4.89,0,*77
1498741541.67,45147,17.81,72932.3,5.77,5.33,5.23,0,*7A
1498741542.87,45148,17.81,72906.3,5.77,5.19,5.19,0,*74
1498741544.07,45149,17.81,72918.5,5.77,5.07,5.11,0,*72
1498741545.27,45150,17.81,72926.3,5.77,5.33,5.33,0,*7D
1498741546.46,45151,17.81,72934.0,5.79,5.55,5.59,0,*7E
1498741547.63,45152,17.81,72914.5,5.79,5.33,5.37,0,*75
1498741548.86,45153,17.81,72922.5,5.79,4.75,4.75,0,*70
1498741550.04,45154,17.81,72938.0,5.79,4.85,4.85,0,*77
1498741551.24,45155,17.81,72926.0,5.79,5.01,5.07,0,*70
1498741552.42,45156,17.81,72948.3,5.79,5.33,5.33,0,*75
1498741553.62,45157,17.81,72912.8,5.81,5.15,5.11,0,*77
1498741554.83,45158,17.81,72948.0,5.79,5.27,5.27,0,*7B
1498741556.03,45159,17.75,72926.0,5.79,5.07,5.01,0,*7C
1498741557.23,45160,17.75,72914.3,5.79,4.57,4.63,0,*77
1498741558.41,45161,17.81,72920.3,5.79,3.85,3.81,0,*75
1498741559.65,45162,17.81,72902.5,5.77,3.79,3.79,0,*7C
1498741560.83,45163,17.81,72906.3,5.75,4.07,4.07,0,*7F
1498741562.06,45164,17.81,72928.5,5.75,4.67,4.71,0,*7F
1498741563.29,45165,17.81,72930.5,5.75,4.93,4.93,0,*79
1498741564.46,45166,17.81,72922.8,5.75,4.45,4.49,0,*76
1498741565.63,45167,17.81,72908.5,5.75,4.07,4.07,0,*7B
1498741566.83,45168,17.75,72888.3,5.73,3.89,3.85,0,*7E
1498741568.0,45169,17.75,72854.0,5.71,4.23,4.27,0,*75
1498741569.19,45170,17.81,72852.8,5.71,4.85,4.79,0,*7A
1498741570.42,45171,17.81,72870.0,5.73,4.59,4.57,0,*74
1498741571.61,45172,17.75,72888.8,5.71,4.79,4.85,0,*78
1498741572.84,45173,17.81,72914.0,5.71,5.05,4.97,0,*70
1498741574.06,45174,17.81,72904.5,5.71,4.75,4.67,0,*7E
1498741575.31,45175,17.81,72886.0,5.73,4.67,4.71,0,*79
1498741576.48,45176,17.81,72886.8,5.71,4.45,4.45,0,*7F
1498741577.73,45177,17.81,72870.3,5.73,4.59,4.59,0,*7C
1498741578.9,45178,17.81,72854.3,5.71,4.57,4.53,0,*75
1498741580.07,45179,17.81,72852.0,5.71,4.85,4.85,0,*70
1498741581.29,45180,17.81,72856.8,5.71,4.97,4.97,0,*76
1498741582.5,45181,17.81,72866.3,5.71,5.05,5.11,0,*72
1498741583.69,45182,17.81,72874.0,5.73,4.81,4.81,0,*76
1498741584.88,45183,17.81,72834.8,5.73,4.89,4.81,0,*7F
1498741586.05,45184,17.75,72808.5,5.71,4.53,4.53,0,*72
1498741587.31,45185,17.81,72842.0,5.73,4.59,4.67,0,*7C
1498741588.47,45186,17.81,72810.0,5.71,4.85,4.85,0,*70
1498741589.67,45187,17.81,72838.0,5.71,4.67,4.57,0,*72
1498741590.87,45188,17.75,72854.0,5.71,4.85,4.75,0,*71
1498741592.07,45189,17.81,72814.3,5.71,4.31,4.23,0,*7C
1498741593.26,45190,17.81,72806.5,5.73,4.57,4.57,0,*75
1498741594.49,45191,17.81,72824.0,5.71,4.97,4.97,0,*76
1498741595.72,45192,17.81,72860.5,5.71,4.97,4.97,0,*75
1498741596.97,45193,17.81,72874.0,5.73,5.05,5.05,0,*76
1498741598.19,45194,17.81,72882.3,5.71,5.05,5.05,0,*73
1498741599.42,45195,17.81,72894.5,5.71,5.01,5.01,0,*72
1498741600.67,45196,17.81,72886.5,5.73,5.05,5.05,0,*73
1498741601.9,45197,17.81,72880.5,5.73,4.89,4.93,0,*79
1498741603.15,45198,17.81,72896.3,5.73,4.59,4.67,0,*70
1498741604.32,45199,17.81,72918.8,5.71,4.85,4.85,0,*7E
1498741605.51,45200,17.75,72906.0,5.71,5.07,5.05,0,*7F
1498741606.68,45201,17.75,72916.5,5.71,5.07,5.15,0,*7F
1498741607.84,45202,17.75,72920.5,5.71,5.29,5.29,0,*7F
1498741609.04,45203,17.81,72918.5,5.71,5.33,5.27,0,*7B
1498741610.25,45204,17.81,72916.5,5.73,5.27,5.29,0,*75
1498741611.47,45205,17.81,72920.5,5.73,5.19,5.27,0,*77
1498741612.7,45206,17.75,72910.0,5.73,5.19,5.27,0,*74
1498741613.94,45207,17.75,72892.5,5.73,5.27,5.27,0,*78
1498741615.16,45208,17.81,72886.3,5.75,5.05,5.05,0,*71
1498741616.34,45209,17.81,72876.0,5.75,5.07,5.07,0,*70
1498741617.56,45210,17.81,72876.0,5.75,5.27,5.27,0,*78
1498741618.77,45211,17.81,72892.5,5.75,5.27,5.27,0,*79
1498741619.98,45212,17.81,72900.5,5.75,5.27,5.27,0,*7A
1498741621.21,45213,17.81,72896.0,5.75,5.05,5.05,0,*7B
1498741622.39,45214,17.81,72886.8,5.75,5.29,5.23,0,*76
1498741623.6,45215,17.81,72890.0,5.75,5.27,5.27,0,*7D
1498741624.78,45216,17.81,72906.5,5.75,5.07,5.07,0,*7E
1498741625.98,45217,17.75,72924.3,5.77,5.11,5.23,0,*7C
1498741627.18,45218,17.75,72924.0,5.77,5.41,5.33,0,*77
1498741628.35,45219,17.81,72916.5,5.79,5.45,5.33,0,*7C
1498741629.51,45220,17.75,72908.0,5.79,5.45,5.45,0,*77
1498741630.7,45221,17.75,72912.3,5.77,5.23,5.29,0,*72
1498741631.9,45222,17.81,72924.3,5.77,5.07,5.11,0,*7C
1498741633.1,45223,17.75,72922.8,5.77,5.07,5.07,0,*7A
1498741634.3,45224,17.75,72928.0,5.77,5.11,5.11,0,*7D
1498741635.51,45225,17.75,72914.5,5.77,5.23,5.19,0,*75
1498741636.68,45226,17.75,72914.3,5.79,5.15,5.15,0,*71
1498741637.86,45227,17.81,72902.0,5.79,5.11,5.11,0,*70
1498741639.05,45228,17.81,72890.8,5.81,5.23,5.33,0,*79
1498741640.22,45229,17.81,72894.8,5.79,5.37,5.37,0,*7E
1498741641.39,45230,17.75,72904.0,5.79,5.45,5.49,0,*7A
1498741642.55,45231,17.75,72904.5,5.79,5.37,5.37,0,*77
1498741643.73,45232,17.75,72916.8,5.79,5.23,5.23,0,*74
1498741644.91,45233,17.75,72930.5,5.79,5.33,5.45,0,*74
1498741646.1,45234,17.75,72928.5,5.81,5.71,5.71,0,*75
1498741647.32,45235,17.75,72940.8,5.83,5.81,5.85,0,*72
1498741648.56,45236,17.75,72944.3,5.81,5.77,5.85,0,*7A
1498741649.77,45237,17.75,72952.0,5.83,5.89,5.95,0,*79
1498741650.96,45238,17.81,72964.5,5.85,5.95,5.95,0,*7D
1498741652.21,45239,17.75,72956.3,5.85,5.89,5.89,0,*7C
1498741653.42,45240,17.75,72952.3,5.89,5.99,6.03,0,*7E
1498741654.64,45241,17.75,72948.0,5.89,6.03,6.11,0,*7C
1498741655.84,45242,17.75,72932.8,5.89,5.99,6.11,0,*7F
1498741657.08,45243,17.75,72912.5,5.89,5.89,5.99,0,*7C
1498741658.32,45244,17.81,72918.8,5.91,5.89,5.77,0,*72
1498741659.52,45245,17.75,72924.8,5.91,5.55,5.59,0,*7E
1498741660.71,45246,17.75,72960.5,5.91,5.95,6.03,0,*7D
1498741661.9,45247,17.75,72978.5,5.91,6.25,6.29,0,*7C
1498741663.11,45248,17.75,72886.0,5.93,5.49,5.49,0,*7D
1498741664.35,45249,17.81,72922.5,5.93,5.23,5.27,0,*78
1498741665.6,45250,17.75,72944.5,5.93,5.77,5.81,0,*7D
1498741666.83,45251,17.75,72934.0,5.95,5.81,5.73,0,*7E
1498741668.05,45252,17.75,72912.0,5.93,5.95,6.03,0,*7A
1498741669.29,45253,17.75,72922.5,5.95,5.93,5.93,0,*71
1498741670.5,45254,17.81,72942.0,5.95,5.85,5.95,0,*77
1498741671.71,45255,17.75,72936.5,5.95,6.17,6.21,0,*72
1498741672.92,45256,17.75,72936.3,5.97,6.21,6.29,0,*7E
1498741674.14,45257,17.75,72940.0,5.99,6.33,6.35,0,*7F
1498741675.37,45258,17.81,72936.8,5.99,6.57,6.65,0,*77
1498741676.6,45259,17.75,72936.8,5.99,6.57,6.57,0,*77
1498741677.85,45260,17.75,72944.0,6.01,6.57,6.57,0,*7F
1498741679.08,45261,17.81,72948.5,6.03,6.61,6.69,0,*74
1498741680.31,45262,17.75,72946.8,6.03,6.57,6.69,0,*72
1498741681.54,45263,17.75,72948.8,6.07,6.65,6.61,0,*7E
1498741682.79,45264,17.75,72946.3,6.05,6.53,6.61,0,*7E
1498741684.03,45265,17.81,72952.8,6.07,6.65,6.69,0,*70
1498741685.26,45266,17.75,72948.3,6.07,6.65,6.69,0,*73
1498741686.52,45267,17.75,72942.0,6.09,6.57,6.65,0,*71
1498741687.78,45268,17.75,72948.3,6.09,6.47,6.57,0,*7E
1498741689.02,45269,17.75,72944.3,6.15,6.47,6.51,0,*74
1498741690.27,45270,17.75,72944.8,6.13,6.39,6.51,0,*73
1498741691.5,45271,17.75,72930.5,6.15,6.47,6.57,0,*7B
1498741692.75,45272,17.75,72926.5,6.17,6.53,6.61,0,*7A
1498741693.98,45273,17.75,72952.3,6.17,6.75,6.87,0,*77
1498741695.18,45274,17.75,72934.3,6.17,6.07,6.07,0,*7D
1498741696.37,45275,17.75,72930.8,6.19,6.11,6.11,0,*72
1498741697.55,45276,17.75,72924.3,6.21,6.21,6.21,0,*7A
1498741698.81,45277,17.75,72920.5,6.17,6.17,6.13,0,*7A
1498741700.02,45278,17.75,72914.8,6.19,6.17,6.21,0,*7A
1498741701.26,45279,17.75,72902.0,6.19,5.89,5.89,0,*7E
1498741702.44,45280,17.75,72914.5,6.21,6.25,6.25,0,*73
1498741703.63,45281,17.75,72906.3,6.19,5.99,6.11,0,*7A
1498741704.83,45282,17.75,72914.0,6.21,6.17,6.25,0,*70
1498741706.08,45283,17.75,72912.8,6.19,6.35,6.47,0,*7E
1498741707.31,45284,17.75,72908.0,6.21,5.85,5.85,0,*77
1498741708.49,45285,17.75,72916.5,6.19,5.99,6.07,0,*79
1498741709.68,45286,17.75,72934.5,6.21,6.25,6.25,0,*75
1498741710.91,45287,17.75,72934.5,6.21,6.43,6.43,0,*74
1498741712.09,45288,17.75,72926.5,6.21,6.07,6.11,0,*7C
1498741713.33,45289,17.75,72920.3,6.23,6.13,6.25,0,*7D
1498741714.53,45290,17.75,72918.3,6.21,6.11,6.17,0,*74
1498741715.74,45291,17.75,72918.3,6.21,6.11,6.17,0,*75
1498741717.0,45292,17.75,72912.3,6.23,6.35,6.39,0,*7E
1498741718.27,45293,17.75,72912.0,6.23,6.51,6.51,0,*73
1498741719.5,45294,17.75,72906.0,6.25,6.61,6.73,0,*71
1498741720.73,45295,17.75,72900.0,6.25,6.69,6.69,0,*73
1498741721.97,45296,17.75,72886.5,6.25,6.39,6.47,0,*79
1498741723.21,45297,17.75,72882.0,6.25,6.13,6.13,0,*71
1498741724.39,45298,17.75,72880.0,6.25,6.11,6.11,0,*7E
1498741725.62,45299,17.81,72884.5,6.25,5.77,5.81,0,*76
1498741726.8,45300,17.75,72880.8,6.25,5.45,5.45,0,*7E
1498741728.01,45301,17.75,72890.3,6.23,5.67,5.59,0,*74
1498741729.25,45302,17.75,72890.3,6.23,5.99,5.93,0,*70
1498741730.47,45303,17.75,72888.0,6.25,5.89,6.03,0,*7C